This is the latest recevied weather packets stored in our database for station/object KC1HBM. If no packets are shown the sender has not sent any weather packets the latest 10 day(s).
| Time | Temp. | Humidity | Pressure | Rain* | Wind** | Luminosity | Snow |
|---|---|---|---|---|---|---|---|
| 1778078033 | 13.89° C | 89% | 1006.4 hPa | 0 mm | - | 270 W/m² | - |
| 1778077732 | 13.89° C | 90% | 1006.5 hPa | 0 mm | - | 251 W/m² | - |
| 1778077429 | 13.33° C | 90% | 1006.5 hPa | 0 mm | - | 195 W/m² | - |
| 1778077127 | 13.33° C | 90% | 1006.6 hPa | 0 mm | - | 155 W/m² | - |
| 1778076825 | 13.33° C | 91% | 1006.8 hPa | 0 mm | - | 148 W/m² | - |
| 1778076523 | 13.33° C | 92% | 1006.9 hPa | 0 mm | - | 122 W/m² | - |
| 1778076219 | 13.33° C | 91% | 1006.8 hPa | 0 mm | - | 104 W/m² | - |
| 1778075916 | 13.33° C | 91% | 1006.9 hPa | 0 mm | - | 97 W/m² | - |
| 1778075613 | 13.33° C | 92% | 1006.8 hPa | 0 mm | - | 103 W/m² | - |
| 1778075309 | 13.33° C | 92% | 1007 hPa | 0 mm | - | 169 W/m² | - |
| 1778075006 | 12.78° C | 92% | 1007 hPa | 0 mm | - | 126 W/m² | - |
| 1778074703 | 12.78° C | 93% | 1006.9 hPa | 0 mm | - | 94 W/m² | - |
| 1778074400 | 12.78° C | 93% | 1007.1 hPa | 0 mm | - | 103 W/m² | - |
| 1778074096 | 12.78° C | 93% | 1006.8 hPa | 0 mm | - | 85 W/m² | - |
| 1778073794 | 12.78° C | 92% | 1006.9 hPa | 0 mm | - | 75 W/m² | - |
| 1778073492 | 12.78° C | 92% | 1006.9 hPa | 0 mm | - | 93 W/m² | - |
| 1778073187 | 12.78° C | 91% | 1006.9 hPa | 0 mm | - | 87 W/m² | - |
| 1778072885 | 12.78° C | 92% | 1006.8 hPa | 0 mm | - | 105 W/m² | - |
| 1778072581 | 12.78° C | 92% | 1006.8 hPa | 0 mm | - | 162 W/m² | - |
| 1778072279 | 12.78° C | 92% | 1006.8 hPa | 0 mm | - | 77 W/m² | - |
| 1778071977 | 12.78° C | 92% | 1006.8 hPa | 0 mm | - | 160 W/m² | - |
| 1778071675 | 12.78° C | 92% | 1006.9 hPa | 0 mm | - | 111 W/m² | - |
| 1778071372 | 12.78° C | 92% | 1006.9 hPa | 0 mm | - | 92 W/m² | - |
| 1778071070 | 12.78° C | 92% | 1006.8 hPa | 0 mm | - | 92 W/m² | - |
| 1778070768 | 12.78° C | 91% | 1006.7 hPa | 0 mm | - | 93 W/m² | - |
* Rain latest hour (hover to see other rain measurements)
** Current wind speed in m/s (hover to see current wind gust speed)